FALCON 9 DEB (47610 NORAD) Tracking and Keplerian Element Data

This shows tracking and keplerian element data for the satellite.

Feedback or suggestion? Click here.




ElementValue
Catalog47610
NameFALCON 9 DEB
Epoch Orbit447
Epoch Day62.98750474
Epoch Year2021
RAAN341.1496
Inclination53.0326
Eccentricity0.0008726
Argument of Perigee305.7723
Mean Anonmoly54.2511
Mean Motion16.40146493
Decay Rate0.0646701
L11 47610U 21009BQ 21062.98750474 .06467010 12436-4 45503-3 0 9999
L22 47610 53.0326 341.1496 0008726 305.7723 54.2511 16.40146493 4478

Live tracking and technical data element details for FALCON 9 DEB (NORAD 47610). FALCON 9 DEB can be tracked NOW for your location showing map with azimuth and elevation plus other details from your city location.

Track the satellite on the map from your city or location and see movement details for azimuth, elevation, latitude, longitude, range, height, and movement on the map or in text.







IsCatalogInMostPopularTable: catalog: 47610, numindb: 20
Update: records affected: 1



GetName: 47610 FALCON 9 DEB

Hit Count: updated at: Tue, 13 Apr 2021 05:23:51 GMT